DAL2216 KSEA-LEBL

Flight info

Callsign DAL2216
Flight time N/A
Altitude 39000
Route SEA9 SEA DCT ZADON DCT ZELAK DCT ZIRAN DCT MLP J540 YQL Q896 MEETO Q959 YVC J540 YYL DCT 60N095W 61N090W 63N080W DCT YFB DCT KAGLY/M085F390 DCT EMBOK DCT 63N050W/M085F410 62N040W 60N030W 57N020W DCT RESNO/N0495F410 DCT NETKI DCT LEDGO DCT DOLUR DCT IDRIK DCT NOVAN DCT NENEM DCT PPN DCT GRAUS
Aircraft A359/H-SDE2E3GHIJ3J4J5LM1ORWXY/LB1D1

Departure

Time 2026-05-07 09:26
Airport Seattle–Tacoma International Airport (KSEA)

Arrival

Time N/A
Airport Josep Tarradellas Barcelona-El Prat Airport (LEBL)
Time Latitude Longitude Altitude Speed Heading
2026-05-07 08:32 47.44093 -122.30125 400 ft 0 kts 43°
2026-05-07 09:07 47.44088 -122.30132 395 ft 3 kts 43°
2026-05-07 09:07 47.44074 -122.30151 396 ft 3 kts 32°
2026-05-07 09:08 47.44066 -122.30158 397 ft 3 kts 13°
2026-05-07 09:08 47.44049 -122.30160 397 ft 3 kts 335°
2026-05-07 09:08 47.44036 -122.30148 396 ft 0 kts 303°
2026-05-07 09:10 47.44036 -122.30149 396 ft 0 kts 303°
2026-05-07 09:13 47.44036 -122.30148 400 ft 0 kts 303°
2026-05-07 09:17 47.44036 -122.30149 400 ft 0 kts 303°
2026-05-07 09:19 47.44039 -122.30179 397 ft 11 kts 271°
2026-05-07 09:19 47.43997 -122.30351 397 ft 26 kts 263°
2026-05-07 09:20 47.44002 -122.30578 399 ft 15 kts 290°
2026-05-07 09:20 47.44113 -122.30638 398 ft 23 kts
2026-05-07 09:20 47.44295 -122.30634 396 ft 32 kts
2026-05-07 09:20 47.44500 -122.30632 397 ft 38 kts 359°
2026-05-07 09:21 47.44763 -122.30633 397 ft 40 kts
2026-05-07 09:21 47.45043 -122.30633 397 ft 42 kts 360°
2026-05-07 09:21 47.45265 -122.30630 395 ft 9 kts
2026-05-07 09:21 47.45271 -122.30629 398 ft 0 kts
2026-05-07 09:22 47.45277 -122.30629 398 ft 3 kts
2026-05-07 09:23 47.45321 -122.30627 397 ft 10 kts
2026-05-07 09:23 47.45412 -122.30626 397 ft 16 kts
2026-05-07 09:23 47.45544 -122.30624 399 ft 22 kts
2026-05-07 09:23 47.45711 -122.30621 396 ft 26 kts
2026-05-07 09:24 47.45907 -122.30622 396 ft 30 kts
2026-05-07 09:24 47.46103 -122.30621 396 ft 13 kts
2026-05-07 09:24 47.46122 -122.30621 396 ft 2 kts
2026-05-07 09:24 47.46163 -122.30620 399 ft 10 kts
2026-05-07 09:25 47.46248 -122.30639 397 ft 15 kts 328°
2026-05-07 09:25 47.46243 -122.30767 396 ft 15 kts 202°
2026-05-07 09:25 47.46095 -122.30783 398 ft 43 kts 182°
2026-05-07 09:25 47.45467 -122.30788 397 ft 143 kts 179°
2026-05-07 09:26 47.44235 -122.30794 678 ft 210 kts 181°
2026-05-07 09:26 47.42612 -122.30820 1683 ft 246 kts 181°
2026-05-07 09:26 47.41059 -122.30812 2649 ft 261 kts 179°
2026-05-07 09:26 47.39301 -122.30527 4027 ft 249 kts 170°
2026-05-07 09:27 47.37607 -122.29836 5018 ft 257 kts 159°
2026-05-07 09:27 47.36056 -122.28675 5714 ft 269 kts 147°
2026-05-07 09:27 47.33427 -122.24601 7483 ft 283 kts 120°
2026-05-07 09:28 47.32606 -122.21938 8471 ft 287 kts 107°
2026-05-07 09:28 47.32179 -122.19072 9333 ft 295 kts 95°
2026-05-07 09:28 47.32184 -122.16027 10268 ft 300 kts 81°
2026-05-07 09:28 47.32646 -122.12941 10771 ft 319 kts 68°
2026-05-07 09:29 47.33639 -122.09946 11157 ft 338 kts 53°
2026-05-07 09:29 47.35218 -122.07268 11791 ft 346 kts 38°
2026-05-07 09:29 47.37189 -122.05283 12614 ft 348 kts 24°
2026-05-07 09:29 47.39451 -122.04065 13459 ft 349 kts 10°
2026-05-07 09:30 47.41907 -122.03673 14297 ft 351 kts 359°
2026-05-07 09:30 47.44356 -122.03248 15040 ft 359 kts
2026-05-07 09:30 47.46771 -122.02176 15790 ft 369 kts 20°
2026-05-07 09:30 47.48998 -122.00195 16519 ft 381 kts 35°
2026-05-07 09:31 47.50783 -121.97291 17258 ft 394 kts 53°
2026-05-07 09:31 47.52043 -121.93625 17951 ft 405 kts 64°
2026-05-07 09:31 47.53039 -121.89658 18622 ft 414 kts 68°
2026-05-07 09:31 47.53912 -121.85559 19206 ft 421 kts 70°
2026-05-07 09:32 47.54752 -121.81371 19829 ft 426 kts 70°
2026-05-07 09:32 47.55583 -121.77135 20453 ft 432 kts 72°
2026-05-07 09:32 47.56068 -121.72714 21083 ft 441 kts 83°
2026-05-07 09:32 47.56199 -121.68141 21742 ft 447 kts 86°
2026-05-07 09:33 47.56203 -121.63501 22418 ft 453 kts 88°
2026-05-07 09:33 47.56140 -121.58846 23097 ft 459 kts 89°
2026-05-07 09:33 47.56050 -121.54110 23730 ft 466 kts 89°
2026-05-07 09:33 47.55953 -121.49271 24351 ft 470 kts 89°
2026-05-07 09:34 47.55860 -121.44408 24940 ft 474 kts 89°
2026-05-07 09:34 47.55771 -121.39490 25486 ft 480 kts 88°
2026-05-07 09:34 47.55691 -121.34526 26061 ft 485 kts 88°
2026-05-07 09:34 47.55613 -121.29518 26616 ft 489 kts 88°
2026-05-07 09:35 47.55534 -121.24430 27185 ft 494 kts 88°
2026-05-07 09:35 47.55449 -121.19333 27752 ft 498 kts 88°
2026-05-07 09:35 47.55358 -121.14184 28312 ft 503 kts 88°
2026-05-07 09:35 47.55268 -121.08986 28858 ft 507 kts 88°
2026-05-07 09:36 47.55178 -121.03754 29369 ft 512 kts 88°
2026-05-07 09:36 47.55086 -120.98523 29857 ft 517 kts 88°
2026-05-07 09:36 47.54990 -120.93264 30323 ft 521 kts 88°
2026-05-07 09:36 47.54909 -120.88955 30719 ft 524 kts 88°
2026-05-07 09:37 47.54813 -120.84067 31083 ft 527 kts 88°
2026-05-07 09:37 47.54705 -120.78620 31323 ft 531 kts 88°
2026-05-07 09:37 47.54593 -120.73121 31731 ft 533 kts 88°
2026-05-07 09:37 47.54478 -120.67641 32216 ft 534 kts 88°
2026-05-07 09:38 47.54358 -120.62125 32596 ft 538 kts 87°
2026-05-07 09:38 47.54236 -120.56561 32952 ft 542 kts 87°
2026-05-07 09:38 47.54112 -120.51051 33320 ft 544 kts 87°
2026-05-07 09:38 47.53982 -120.45383 33671 ft 546 kts 87°
2026-05-07 09:39 47.53852 -120.39795 33983 ft 548 kts 87°
2026-05-07 09:39 47.53793 -120.34178 34378 ft 547 kts 85°
2026-05-07 09:39 47.53815 -120.28549 34754 ft 547 kts 84°
2026-05-07 09:39 47.53864 -120.22904 35207 ft 546 kts 84°
2026-05-07 09:40 47.53911 -120.17271 35636 ft 545 kts 84°
2026-05-07 09:40 47.53945 -120.11661 36026 ft 545 kts 84°
2026-05-07 09:40 47.53965 -120.06109 36404 ft 545 kts 84°
2026-05-07 09:40 47.53974 -120.00435 36764 ft 546 kts 85°
2026-05-07 09:41 47.53973 -119.94886 37105 ft 545 kts 85°
2026-05-07 09:41 47.53968 -119.89277 37442 ft 545 kts 85°
2026-05-07 09:41 47.53959 -119.83660 37867 ft 543 kts 85°
2026-05-07 09:41 47.53947 -119.78087 38272 ft 542 kts 85°
2026-05-07 09:42 47.53934 -119.72511 38576 ft 542 kts 85°
2026-05-07 09:42 47.53919 -119.66999 38843 ft 543 kts 85°
2026-05-07 09:42 47.53901 -119.61423 38928 ft 543 kts 85°